Flag Weather past 2 weeks in Norfolk, Virginia, U.S.A.

Now
44 °F

Broken clouds.


Feels Like: 40 °F
Forecast: 29 / 43 °F
Wind: 7 mph from Northwest

Location: Norfolk Naval Air Station

Current Time: Nov 28, 2014 at 5:16:34 PM

Latest Report: Nov 28, 2014 at 3:59 PM


Visibility: 10 mi

Pressure: 30.29 "Hg

Humidity: 41%

Dew point: 22 °F

Location of NorfolkLocation

Historic Weather in Norfolk — Graph

°F

Norfolk temperature yesterday

Maximum temperature yesterday: 46 °F (at 2:59 PM)
Minimum temperature yesterday: 39 °F (at 2:59 AM)
Average temperature yesterday: 43 °F

Past Weeks' High & Low Weather Summary

 TemperatureHumidityPressure
High77 °F (Nov 24, 12:59 PM)90% (Nov 17, 8:59 AM)30.58 "Hg (Nov 17, 8:59 AM)
Low29 °F (Nov 22, 4:59 AM)24% (Nov 19, 2:59 PM)29.56 "Hg (Nov 17, 5:59 PM)
Average48 °F60%30.15 "Hg
* Reported Nov 13 3:59 PM — Nov 28 3:59 PM, Norfolk, Weather by CustomWeather, © 2014

Note: Actual official high and low records may vary slightly from our data, if they occured in-between our weather recording intervals... More about our weather records

Advertising

Norfolk weather history for previous 24 hours

 ConditionsComfort  
Time TempWeatherWind HumidityBarometerVisibility
3:59 PM
Nov 28
44 °FBroken clouds.7 mph41%30.29 "Hg10 mi
2:59 PM45 °FScattered clouds.8 mph38%30.28 "Hg10 mi
1:59 PM46 °FScattered clouds.12 mph37%30.27 "Hg10 mi
12:59 PM46 °FScattered clouds.15 mph37%30.28 "Hg10 mi
11:59 AM45 °FPassing clouds.12 mph42%30.30 "Hg10 mi
10:59 AM44 °FPassing clouds.20 mph43%30.33 "Hg10 mi
9:59 AM43 °FPassing clouds.12 mph47%30.32 "Hg10 mi
8:59 AM41 °FPassing clouds.18 mph47%30.32 "Hg10 mi
7:59 AM39 °FPassing clouds.17 mph53%30.31 "Hg10 mi
6:59 AM37 °FPassing clouds.13 mph60%30.28 "Hg10 mi
5:59 AM37 °FClear.14 mph60%30.27 "Hg10 mi
4:59 AM38 °FClear.15 mph58%30.25 "Hg10 mi
3:59 AM38 °FClear.15 mph65%30.23 "Hg10 mi
2:59 AM39 °FClear.13 mph62%30.22 "Hg10 mi
1:59 AM40 °FClear.12 mph65%30.19 "Hg10 mi
12:59 AM41 °FPassing clouds.12 mph67%30.19 "Hg10 mi
11:59 PM
Nov 27
41 °FPassing clouds.10 mph70%30.20 "Hg10 mi
10:59 PM42 °FOvercast.12 mph68%30.19 "Hg10 mi
9:59 PM42 °FPartly cloudy.12 mph71%30.18 "Hg10 mi
8:59 PM42 °FPassing clouds.9 mph76%30.17 "Hg10 mi
7:59 PM42 °FPassing clouds.8 mph76%30.15 "Hg10 mi
6:59 PM41 °FClear.7 mph76%30.13 "Hg10 mi
5:59 PM43 °FPassing clouds.9 mph79%30.11 "Hg10 mi
Weather by CustomWeather, © 2014

See weather overviewHow to use our weather pages